| time (UTC) | temp C | wind direction | speed KPH | gust KPH | rain 1hr cm | rain 24hr cm | rain mn cm | humidity % | barometer mb |
| 20260904211912 | 24 | 238 | 8.0 | 16.1 | 0.00 | 0.00 | 0.00 | 45 | 1014.1 |
| 20260904210411 | 24 | 221 | 8.0 | 16.1 | 0.00 | 0.00 | 0.00 | 45 | 1014.2 |
| 20260904204913 | 24 | 268 | 8.0 | 12.9 | 0.00 | 0.00 | 0.00 | 45 | 1014.2 |
| 20260904203412 | 24 | 245 | 8.0 | 12.9 | 0.00 | 0.00 | 0.00 | 45 | 1014.1 |
| 20260904201912 | 24 | 227 | 8.0 | 16.1 | 0.00 | 0.00 | 0.00 | 45 | 1014.0 |
| 20260904200412 | 24 | 221 | 9.7 | 16.1 | 0.00 | 0.00 | 0.00 | 44 | 1014.0 |
| 20260904194912 | 24 | 235 | 9.7 | 16.1 | 0.00 | 0.00 | 0.00 | 44 | 1014.2 |
| 20260904193413 | 24 | 222 | 6.4 | 12.9 | 0.00 | 0.00 | 0.00 | 44 | 1014.0 |
| 20260904191912 | 25 | 229 | 6.4 | 12.9 | 0.00 | 0.00 | 0.00 | 43 | 1014.0 |
| 20260904190412 | 25 | 235 | 6.4 | 11.3 | 0.00 | 0.00 | 0.00 | 42 | 1013.8 |
| 20260904184912 | 25 | 247 | 6.4 | 20.9 | 0.00 | 0.00 | 0.00 | 41 | 1013.7 |
| 20260904183414 | 26 | 237 | 8.0 | 14.5 | 0.00 | 0.00 | 0.00 | 40 | 1013.5 |
| 20260904180412 | 26 | 237 | 4.8 | 12.9 | 0.00 | 0.00 | 0.00 | 39 | 1013.0 |
| 20260904173415 | 27 | 196 | 6.4 | 16.1 | 0.00 | 0.00 | 0.00 | 37 | 1012.8 |
| 20260904171913 | 28 | 359 | 6.4 | 14.5 | 0.00 | 0.00 | 0.00 | 36 | 1012.7 |
| 20260904170413 | 28 | 244 | 3.2 | 11.3 | 0.00 | 0.00 | 0.00 | 35 | 1012.7 |
| 20260904164913 | 29 | 360 | 6.4 | 11.3 | 0.00 | 0.00 | 0.00 | 36 | 1012.6 |
| 20260904163413 | 29 | 234 | 9.7 | 17.7 | 0.00 | 0.00 | 0.00 | 36 | 1012.7 |
| 20260904161914 | 30 | 212 | 8.0 | 14.5 | 0.00 | 0.00 | 0.00 | 37 | 1012.8 |
| 20260904160414 | 30 | 359 | 8.0 | 12.9 | 0.00 | 0.00 | 0.00 | 36 | 1012.8 |
| 20260904151913 | 30 | 205 | 4.8 | 9.7 | 0.00 | 0.00 | 0.00 | 37 | 1013.3 |
| 20260904150413 | 30 | 247 | 14.5 | 20.9 | 0.00 | 0.00 | 0.00 | 36 | 1013.5 |
| 20260904143413 | 30 | 220 | 16.1 | 25.7 | 0.00 | 0.00 | 0.00 | 34 | 1013.7 |
| 20260904141912 | 30 | 234 | 9.7 | 17.7 | 0.00 | 0.00 | 0.00 | 35 | 1014.0 |
| 20260904140412 | 30 | 235 | 8.0 | 17.7 | 0.00 | 0.00 | 0.00 | 35 | 1014.1 |
| 20260904134912 | 30 | 164 | 11.3 | 24.1 | 0.00 | 0.00 | 0.00 | 35 | 1014.3 |
| 20260904133413 | 30 | 144 | 4.8 | 22.5 | 0.00 | 0.00 | 0.00 | 34 | 1014.5 |
| 20260904131913 | 29 | 359 | 12.9 | 25.7 | 0.00 | 0.00 | 0.00 | 35 | 1014.9 |
| 20260904130413 | 30 | 199 | 11.3 | 20.9 | 0.00 | 0.00 | 0.00 | 35 | 1015.1 |
| 20260904124913 | 29 | 226 | 8.0 | 22.5 | 0.00 | 0.00 | 0.00 | 35 | 1015.3 |
| 20260904123412 | 29 | 228 | 9.7 | 19.3 | 0.00 | 0.00 | 0.00 | 37 | 1015.6 |
| 20260904120413 | 28 | 194 | 12.9 | 22.5 | 0.00 | 0.00 | 0.00 | 39 | 1016.3 |
| 20260904113412 | 27 | 160 | 6.4 | 19.3 | 0.00 | 0.00 | 0.00 | 40 | 1016.8 |
| 20260904111912 | 27 | 268 | 3.2 | 19.3 | 0.00 | 0.00 | 0.00 | 40 | 1017.0 |
| 20260904110413 | 27 | 159 | 6.4 | 14.5 | 0.00 | 0.00 | 0.00 | 42 | 1017.3 |
| 20260904104912 | 27 | 313 | 8.0 | 17.7 | 0.00 | 0.00 | 0.00 | 42 | 1017.6 |
| 20260904103413 | 27 | 227 | 6.4 | 19.3 | 0.00 | 0.00 | 0.00 | 42 | 1017.7 |
| 20260904101913 | 27 | 221 | 6.4 | 12.9 | 0.00 | 0.00 | 0.00 | 42 | 1017.8 |
| 20260904094913 | 27 | 144 | 3.2 | 17.7 | 0.00 | 0.00 | 0.00 | 43 | 1018.5 |
| 20260904093413 | 26 | 192 | 4.8 | 11.3 | 0.00 | 0.00 | 0.00 | 45 | 1018.7 |
| 20260904091912 | 26 | 173 | 4.8 | 16.1 | 0.00 | 0.00 | 0.00 | 45 | 1018.8 |
| 20260904084913 | 25 | 308 | 4.8 | 11.3 | 0.00 | 0.00 | 0.00 | 45 | 1019.1 |
| 20260904081912 | 25 | 249 | 6.4 | 16.1 | 0.00 | 0.00 | 0.00 | 47 | 1019.3 |
| 20260904080413 | 25 | 244 | 4.8 | 9.7 | 0.00 | 0.00 | 0.00 | 46 | 1019.3 |
| 20260904074913 | 25 | 308 | 3.2 | 14.5 | 0.00 | 0.00 | 0.00 | 47 | 1019.3 |
| 20260904073412 | 25 | 205 | 6.4 | 17.7 | 0.00 | 0.00 | 0.00 | 48 | 1019.4 |
| 20260904070412 | 24 | 235 | 4.8 | 9.7 | 0.00 | 0.00 | 0.00 | 49 | 1019.6 |
| 20260904064912 | 23 | 247 | 6.4 | 9.7 | 0.00 | 0.00 | 0.00 | 50 | 1019.7 |
| 20260904063413 | 22 | 280 | 4.8 | 9.7 | 0.00 | 0.00 | 0.00 | 53 | 1019.6 |
| 20260904061913 | 22 | 217 | 3.2 | 6.4 | 0.00 | 0.00 | 0.00 | 56 | 1019.8 |
| 20260904060413 | 21 | 217 | 4.8 | 11.3 | 0.00 | 0.00 | 0.00 | 60 | 1019.9 |
| 20260904054913 | 19 | 359 | 3.2 | 6.4 | 0.00 | 0.00 | 0.00 | 65 | 1019.9 |
| 20260904051912 | 18 | 233 | 1.6 | 4.8 | 0.00 | 0.00 | 0.00 | 65 | 1019.8 |
| 20260904050413 | 18 | 88 | 0.0 | 3.2 | 0.00 | 0.00 | 0.00 | 64 | 1019.7 |
| 20260904044913 | 18 | 133 | 0.0 | 1.6 | 0.00 | 0.00 | 0.00 | 63 | 1019.8 |
| 20260904041913 | 19 | 214 | 3.2 | 8.0 | 0.00 | 0.00 | 0.00 | 60 | 1019.9 |
| 20260904033413 | 20 | 249 | 4.8 | 9.7 | 0.00 | 0.00 | 0.00 | 57 | 1019.9 |
| 20260904031912 | 20 | 205 | 6.4 | 11.3 | 0.00 | 0.00 | 0.00 | 57 | 1019.9 |
| 20260904030414 | 20 | 240 | 4.8 | 9.7 | 0.00 | 0.00 | 0.00 | 57 | 1019.9 |
| 20260904024913 | 20 | 232 | 4.8 | 9.7 | 0.00 | 0.00 | 0.00 | 57 | 1020.0 |
| 20260904023412 | 20 | 237 | 6.4 | 9.7 | 0.00 | 0.00 | 0.00 | 57 | 1020.2 |
| 20260904021913 | 20 | 276 | 6.4 | 11.3 | 0.00 | 0.00 | 0.00 | 57 | 1020.3 |
| 20260904020413 | 20 | 226 | 4.8 | 8.0 | 0.00 | 0.00 | 0.00 | 58 | 1020.1 |
| 20260904014912 | 20 | 246 | 4.8 | 11.3 | 0.00 | 0.00 | 0.00 | 58 | 1020.3 |
| 20260904013412 | 20 | 215 | 4.8 | 8.0 | 0.00 | 0.00 | 0.00 | 59 | 1020.4 |
| 20260904011913 | 20 | 258 | 3.2 | 8.0 | 0.00 | 0.00 | 0.00 | 60 | 1020.5 |
| 20260904010412 | 20 | 197 | 4.8 | 9.7 | 0.00 | 0.00 | 0.00 | 60 | 1020.5 |
| 20260904004912 | 20 | 218 | 3.2 | 8.0 | 0.00 | 0.00 | 0.00 | 60 | 1020.6 |
| 20260904003413 | 20 | 359 | 4.8 | 11.3 | 0.00 | 0.00 | 0.00 | 60 | 1020.7 |
| 20260904001912 | 20 | 273 | 3.2 | 8.0 | 0.00 | 0.00 | 0.00 | 61 | 1020.7 |
| 20260904000412 | 20 | 256 | 3.2 | 9.7 | 0.00 | 0.00 | 0.00 | 61 | 1020.9 |
| 20260903234913 | 20 | 232 | 4.8 | 9.7 | 0.00 | 0.00 | 0.00 | 61 | 1021.1 |
| 20260903233412 | 20 | 359 | 6.4 | 11.3 | 0.00 | 0.00 | 0.00 | 60 | 1021.0 |
| 20260903230412 | 20 | 215 | 4.8 | 11.3 | 0.00 | 0.00 | 0.00 | 59 | 1021.3 |
| 20260903221913 | 20 | 206 | 4.8 | 8.0 | 0.00 | 0.00 | 0.00 | 57 | 1021.5 |
| 20260903214912 | 20 | 252 | 4.8 | 11.3 | 0.00 | 0.00 | 0.00 | 57 | 1021.1 |
| 20260903213412 | 20 | 225 | 4.8 | 9.7 | 0.00 | 0.00 | 0.00 | 57 | 1021.1 |